Location: Breux
(46.3269°N, 3.2993°E)
Time: 11:51:16
(UTC+00:00)

Cosmos 2322 Rocket - Pass Details

Date: 09 April 2020
Orbit: 834 x 849 km, 71.0° (Epoch: 05 June)

Event Time Altitude Azimuth Distance (km) Brightness Sun altitude
Rises 23:18:23 0° 332° (NNW) 3,402 6.3 -35.2°
Reaches altitude 10° 23:20:50 10° 331° (NNW) 2,462 5.3 -35.3°
Enters shadow 23:24:03 36° 327° (NNW) 1,313 3.5 -35.4°
